User: anonymous   Login
Location: Colonia Mina de C?rbuni
(46.1667°N, 22.7167°E)
Time: 19:19:43
(UTC+00:00)
Language:

Tiros 1 despin weight - Orbit

View from above orbital plane
View from above orbital plane
View from above satellite
View from above satellite

Ground track
Ground track

The orbit data is extracted from the following two-line orbital elements,

1   115U 60002D   24110.06042225  .00007149  00000-0  76888-3 0  9995
2   115  48.1672 359.4129 0031447 320.0196  39.8404 14.88957062421285
Epoch (UTC): 19 April 2024 01:27:00
Eccentricity: 0.0031447
inclination: 48.1672°
perigee height: 579 km
apogee height: 623 km
right ascension of ascending node: 359.4129°
argument of perigee: 320.0196°
revolutions per day: 14.88957062
mean anomaly at epoch: 39.8404°
orbit number at epoch: 42128

The dashed part of the orbit path shows where the satellite is in the earth's shadow,  

DLR